Orbital Elements at Epoch 2459000.5 (2020-May-31.0) TDB
Reference: JPL 29 (heliocentric ecliptic J2000)
Element | Value | Uncertainty (1-sigma) | Units |
e | .05139318555171033 | 3.2569e-08 | |
a | 2.777027097760553 | 1.09e-08 | au |
q | 2.634306828843218 | 8.8565e-08 | au |
i | 1.577383755429858 | 3.5137e-06 | deg |
node | 115.1152787255094 | 0.00015331 | deg |
peri | 185.3056901544874 | 0.00015882 | deg |
M | 35.82852319423509 | 4.1222e-05 | deg |
tp | 2458832.273267396409 (2019-Dec-14.77326740) | 0.00019354 | TDB |
period | 1690.318727595147 4.63 | 9.9516e-06 2.725e-08 | d yr |
n | .2129775847139668 | 1.2539e-09 | deg/d |
Q | 2.919747366677889 | 1.146e-08 | au |
|
| | Orbit Determination Parameters
Additional Information
|